,,PressureMeas_1m,,PRMeasQMR101_1,,RHStat155_1m_1,,SRMeasQMS101R_1m,,TAStat155_1m_1,,GenWind_1,,GenWind_1,
2018-11-18, 00:00:06,VALID,919.712,VALID,0.0,VALID,98.537,VALID,-0.003,VALID,21.275,VALID,21.0,VALID,0.0,
2018-11-18, 00:01:06,VALID,919.75,VALID,0.0,VALID,98.666,VALID,-0.004,VALID,21.336,VALID,21.0,VALID,0.0,
2018-11-18, 00:02:06,VALID,919.785,VALID,0.0,VALID,98.59,VALID,-0.014,VALID,21.281,VALID,23.0,VALID,0.0,
2018-11-18, 00:03:06,VALID,919.806,VALID,0.0,VALID,98.671,VALID,-0.024,VALID,21.307,VALID,26.0,VALID,0.0,
2018-11-18, 00:04:06,VALID,919.824,VALID,0.0,VALID,98.689,VALID,-0.018,VALID,21.318,VALID,27.0,VALID,0.0,
2018-11-18, 00:05:06,VALID,919.836,VALID,0.0,VALID,98.618,VALID,-0.014,VALID,21.256,VALID,357.0,VALID,0.0,
2018-11-18, 00:06:06,VALID,919.823,VALID,0.0,VALID,98.608,VALID,0.004,VALID,21.203,VALID,360.0,VALID,0.0,
2018-11-18, 00:07:06,VALID,919.808,VALID,0.0,VALID,98.634,VALID,-0.019,VALID,21.206,VALID,9.0,VALID,0.0,
2018-11-18, 00:08:06,VALID,919.805,VALID,0.0,VALID,98.655,VALID,-0.003,VALID,21.21,VALID,351.0,VALID,0.0,
2018-11-18, 00:09:06,VALID,919.795,VALID,0.0,VALID,98.671,VALID,-0.016,VALID,21.214,VALID,15.0,VALID,0.0,
2018-11-18, 00:10:06,VALID,919.794,VALID,0.0,VALID,98.682,VALID,-0.019,VALID,21.226,VALID,4.0,VALID,0.0,
2018-11-18, 00:11:06,VALID,919.781,VALID,0.0,VALID,98.764,VALID,-0.027,VALID,21.281,VALID,27.0,VALID,0.0,
2018-11-18, 00:12:06,VALID,919.781,VALID,0.0,VALID,98.809,VALID,-0.014,VALID,21.329,VALID,33.0,VALID,0.0,
2018-11-18, 00:13:06,VALID,919.785,VALID,0.0,VALID,98.832,VALID,-0.019,VALID,21.378,VALID,33.0,VALID,0.0,
2018-11-18, 00:14:06,VALID,919.779,VALID,0.0,VALID,98.835,VALID,-0.018,VALID,21.383,VALID,33.0,VALID,0.0,
2018-11-18, 00:15:06,VALID,919.784,VALID,0.0,VALID,98.807,VALID,-0.029,VALID,21.377,VALID,33.0,VALID,0.0,
2018-11-18, 00:16:06,VALID,919.77,VALID,0.0,VALID,98.811,VALID,-0.034,VALID,21.365,VALID,34.0,VALID,0.0,
2018-11-18, 00:17:06,VALID,919.771,VALID,0.0,VALID,98.748,VALID,-0.004,VALID,21.28,VALID,35.0,VALID,0.0,
2018-11-18, 00:18:06,VALID,919.753,VALID,0.0,VALID,98.718,VALID,-0.005,VALID,21.269,VALID,30.0,VALID,0.0,
2018-11-18, 00:19:06,VALID,919.732,VALID,0.0,VALID,98.667,VALID,-0.005,VALID,21.255,VALID,30.0,VALID,0.0,
2018-11-18, 00:20:06,VALID,919.709,VALID,0.0,VALID,98.706,VALID,-0.011,VALID,21.314,VALID,30.0,VALID,0.0,
2018-11-18, 00:21:06,VALID,919.686,VALID,0.0,VALID,98.673,VALID,-0.018,VALID,21.333,VALID,30.0,VALID,0.0,
2018-11-18, 00:22:06,VALID,919.678,VALID,0.0,VALID,98.608,VALID,-0.016,VALID,21.298,VALID,30.0,VALID,0.0,
2018-11-18, 00:23:06,VALID,919.673,VALID,0.0,VALID,98.557,VALID,-0.016,VALID,21.284,VALID,30.0,VALID,0.0,
2018-11-18, 00:24:06,VALID,919.662,VALID,0.0,VALID,98.548,VALID,-0.014,VALID,21.292,VALID,29.0,VALID,0.0,
2018-11-18, 00:25:06,VALID,919.663,VALID,0.0,VALID,98.438,VALID,-0.029,VALID,21.222,VALID,20.0,VALID,0.0,
2018-11-18, 00:26:06,VALID,919.678,VALID,0.0,VALID,98.547,VALID,-0.015,VALID,21.274,VALID,38.0,VALID,0.0,
2018-11-18, 00:27:06,VALID,919.667,VALID,0.0,VALID,98.576,VALID,-0.013,VALID,21.288,VALID,35.0,VALID,0.0,
2018-11-18, 00:28:06,VALID,919.661,VALID,0.0,VALID,98.532,VALID,-0.03,VALID,21.269,VALID,32.0,VALID,0.0,
2018-11-18, 00:29:06,VALID,919.657,VALID,0.0,VALID,98.612,VALID,-0.02,VALID,21.308,VALID,32.0,VALID,0.0,
2018-11-18, 00:30:06,VALID,919.633,VALID,0.0,VALID,98.58,VALID,-0.018,VALID,21.303,VALID,32.0,VALID,0.0,
2018-11-18, 00:31:06,VALID,919.624,VALID,0.0,VALID,98.593,VALID,-0.028,VALID,21.295,VALID,32.0,VALID,0.0,
2018-11-18, 00:32:06,VALID,919.609,VALID,0.0,VALID,98.575,VALID,-0.018,VALID,21.288,VALID,32.0,VALID,0.0,
2018-11-18, 00:33:06,VALID,919.601,VALID,0.0,VALID,98.521,VALID,-0.022,VALID,21.244,VALID,32.0,VALID,0.0,
2018-11-18, 00:34:06,VALID,919.578,VALID,0.0,VALID,98.59,VALID,-0.003,VALID,21.266,VALID,33.0,VALID,0.0,
2018-11-18, 00:35:06,VALID,919.577,VALID,0.0,VALID,98.576,VALID,-0.026,VALID,21.255,VALID,19.0,VALID,0.0,
2018-11-18, 00:36:06,VALID,919.564,VALID,0.0,VALID,98.564,VALID,-0.021,VALID,21.23,VALID,16.0,VALID,0.0,
2018-11-18, 00:37:06,VALID,919.56,VALID,0.0,VALID,98.629,VALID,-0.024,VALID,21.248,VALID,16.0,VALID,0.0,
2018-11-18, 00:38:06,VALID,919.544,VALID,0.0,VALID,98.644,VALID,-0.017,VALID,21.256,VALID,16.0,VALID,0.0,
2018-11-18, 00:39:06,VALID,919.543,VALID,0.0,VALID,98.633,VALID,-0.009,VALID,21.255,VALID,16.0,VALID,0.0,
2018-11-18, 00:40:06,VALID,919.512,VALID,0.0,VALID,98.578,VALID,0.058,VALID,21.221,VALID,17.0,VALID,0.0,
2018-11-18, 00:41:06,VALID,919.501,VALID,0.0,VALID,98.525,VALID,0.053,VALID,21.167,VALID,17.0,VALID,0.0,
2018-11-18, 00:42:06,VALID,919.493,VALID,0.0,VALID,98.506,VALID,0.058,VALID,21.121,VALID,17.0,VALID,0.0,
2018-11-18, 00:43:06,VALID,919.494,VALID,0.0,VALID,98.571,VALID,0.054,VALID,21.142,VALID,15.0,VALID,0.0,
2018-11-18, 00:44:06,VALID,919.504,VALID,0.0,VALID,98.567,VALID,0.058,VALID,21.14,VALID,338.0,VALID,0.0,
2018-11-18, 00:45:06,VALID,919.498,VALID,0.0,VALID,98.557,VALID,0.048,VALID,21.119,VALID,330.0,VALID,0.0,
2018-11-18, 00:46:06,VALID,919.485,VALID,0.0,VALID,98.567,VALID,0.051,VALID,21.101,VALID,329.0,VALID,0.0,
2018-11-18, 00:47:06,VALID,919.476,VALID,0.0,VALID,98.535,VALID,0.056,VALID,21.086,VALID,330.0,VALID,0.0,
2018-11-18, 00:48:06,VALID,919.425,VALID,0.0,VALID,98.624,VALID,0.065,VALID,21.153,VALID,329.0,VALID,0.0,
2018-11-18, 00:49:06,VALID,919.43,VALID,0.0,VALID,98.716,VALID,0.059,VALID,21.214,VALID,329.0,VALID,0.0,
2018-11-18, 00:50:06,VALID,919.375,VALID,0.0,VALID,98.752,VALID,0.058,VALID,21.27,VALID,329.0,VALID,0.0,
2018-11-18, 00:51:06,VALID,919.386,VALID,0.0,VALID,98.732,VALID,0.054,VALID,21.263,VALID,335.0,VALID,0.0,
2018-11-18, 00:52:06,VALID,919.359,VALID,0.0,VALID,98.71,VALID,0.067,VALID,21.228,VALID,7.0,VALID,0.0,
2018-11-18, 00:53:06,VALID,919.353,VALID,0.0,VALID,98.71,VALID,0.057,VALID,21.215,VALID,18.0,VALID,0.0,
2018-11-18, 00:54:06,VALID,919.353,VALID,0.0,VALID,98.764,VALID,0.05,VALID,21.227,VALID,40.0,VALID,0.0,
2018-11-18, 00:55:06,VALID,919.348,VALID,0.0,VALID,98.74,VALID,0.113,VALID,21.223,VALID,40.0,VALID,0.0,
2018-11-18, 00:56:06,VALID,919.337,VALID,0.0,VALID,98.716,VALID,0.085,VALID,21.204,VALID,23.0,VALID,0.0,
2018-11-18, 00:57:06,VALID,919.342,VALID,0.0,VALID,98.66,VALID,0.08,VALID,21.164,VALID,9.0,VALID,0.0,
2018-11-18, 00:58:06,VALID,919.314,VALID,0.0,VALID,98.633,VALID,0.083,VALID,21.112,VALID,3.0,VALID,0.0,
2018-11-18, 00:59:06,VALID,919.304,VALID,0.0,VALID,98.618,VALID,0.092,VALID,21.089,VALID,356.0,VALID,0.0,
2018-11-18, 01:00:06,VALID,919.271,VALID,0.0,VALID,98.697,VALID,0.102,VALID,21.109,VALID,356.0,VALID,0.0,
2018-11-18, 01:01:06,VALID,919.257,VALID,0.0,VALID,98.645,VALID,0.091,VALID,21.084,VALID,356.0,VALID,0.0,
2018-11-18, 01:02:06,VALID,919.245,VALID,0.0,VALID,98.667,VALID,0.097,VALID,21.095,VALID,356.0,VALID,0.0,
2018-11-18, 01:03:06,VALID,919.242,VALID,0.0,VALID,98.687,VALID,0.094,VALID,21.106,VALID,353.0,VALID,0.0,
2018-11-18, 01:04:06,VALID,919.238,VALID,0.0,VALID,98.671,VALID,0.104,VALID,21.103,VALID,353.0,VALID,0.0,
2018-11-18, 01:05:06,VALID,919.245,VALID,0.0,VALID,98.706,VALID,0.101,VALID,21.119,VALID,353.0,VALID,0.0,
2018-11-18, 01:06:06,VALID,919.238,VALID,0.0,VALID,98.644,VALID,0.091,VALID,21.088,VALID,358.0,VALID,0.0,
2018-11-18, 01:07:06,VALID,919.234,VALID,0.0,VALID,98.704,VALID,0.077,VALID,21.102,VALID,22.0,VALID,0.0,
2018-11-18, 01:08:06,VALID,919.22,VALID,0.0,VALID,98.676,VALID,0.083,VALID,21.115,VALID,22.0,VALID,0.0,
2018-11-18, 01:09:06,VALID,919.199,VALID,0.0,VALID,98.764,VALID,0.067,VALID,21.19,VALID,22.0,VALID,0.0,
2018-11-18, 01:10:06,VALID,919.19,VALID,0.0,VALID,98.757,VALID,0.043,VALID,21.2,VALID,22.0,VALID,0.0,
2018-11-18, 01:11:06,VALID,919.188,VALID,0.0,VALID,98.726,VALID,0.053,VALID,21.176,VALID,22.0,VALID,0.0,
2018-11-18, 01:12:06,VALID,919.175,VALID,0.0,VALID,98.771,VALID,0.052,VALID,21.189,VALID,22.0,VALID,0.0,
2018-11-18, 01:13:06,VALID,919.168,VALID,0.0,VALID,98.693,VALID,0.046,VALID,21.131,VALID,306.0,VALID,0.0,
2018-11-18, 01:14:06,VALID,919.161,VALID,0.0,VALID,98.649,VALID,0.043,VALID,21.096,VALID,221.0,VALID,0.0,
2018-11-18, 01:15:06,VALID,919.149,VALID,0.0,VALID,98.661,VALID,0.046,VALID,21.102,VALID,218.0,VALID,0.0,
2018-11-18, 01:16:06,VALID,919.136,VALID,0.0,VALID,98.691,VALID,0.045,VALID,21.132,VALID,218.0,VALID,0.0,
2018-11-18, 01:17:06,VALID,919.117,VALID,0.0,VALID,98.64,VALID,0.047,VALID,21.08,VALID,218.0,VALID,0.0,
2018-11-18, 01:18:06,VALID,919.093,VALID,0.0,VALID,98.602,VALID,0.052,VALID,21.052,VALID,218.0,VALID,0.0,
2018-11-18, 01:19:06,VALID,919.056,VALID,0.0,VALID,98.628,VALID,0.065,VALID,21.074,VALID,338.0,VALID,0.0,
2018-11-18, 01:20:06,VALID,919.04,VALID,0.0,VALID,98.698,VALID,0.041,VALID,21.137,VALID,15.0,VALID,0.0,
2018-11-18, 01:21:06,VALID,919.042,VALID,0.0,VALID,98.64,VALID,0.048,VALID,21.117,VALID,9.0,VALID,0.0,
2018-11-18, 01:22:06,VALID,919.045,VALID,0.0,VALID,98.632,VALID,0.051,VALID,21.099,VALID,9.0,VALID,0.0,
2018-11-18, 01:23:06,VALID,919.041,VALID,0.0,VALID,98.619,VALID,0.044,VALID,21.088,VALID,9.0,VALID,0.0,
2018-11-18, 01:24:06,VALID,919.027,VALID,0.0,VALID,98.717,VALID,0.024,VALID,21.148,VALID,9.0,VALID,0.0,
2018-11-18, 01:25:06,VALID,919.029,VALID,0.0,VALID,98.607,VALID,-0.016,VALID,21.092,VALID,9.0,VALID,0.0,
2018-11-18, 01:26:06,VALID,919.007,VALID,0.0,VALID,98.515,VALID,-0.027,VALID,21.028,VALID,9.0,VALID,0.0,
2018-11-18, 01:27:06,VALID,918.984,VALID,0.0,VALID,98.542,VALID,0.001,VALID,21.035,VALID,9.0,VALID,0.0,
2018-11-18, 01:28:06,VALID,918.977,VALID,0.0,VALID,98.555,VALID,-0.022,VALID,21.068,VALID,9.0,VALID,0.0,
2018-11-18, 01:29:06,VALID,918.969,VALID,0.0,VALID,98.561,VALID,-0.003,VALID,21.084,VALID,9.0,VALID,0.0,
2018-11-18, 01:30:06,VALID,918.949,VALID,0.0,VALID,98.536,VALID,-0.023,VALID,21.083,VALID,9.0,VALID,0.0,
2018-11-18, 01:31:06,VALID,918.938,VALID,0.0,VALID,98.536,VALID,-0.01,VALID,21.105,VALID,9.0,VALID,0.0,
2018-11-18, 01:32:06,VALID,918.918,VALID,0.0,VALID,98.494,VALID,-0.012,VALID,21.106,VALID,9.0,VALID,0.0,
2018-11-18, 01:33:06,VALID,918.891,VALID,0.0,VALID,98.456,VALID,-0.006,VALID,21.103,VALID,4.0,VALID,0.0,
2018-11-18, 01:34:06,VALID,918.863,VALID,0.0,VALID,98.399,VALID,-0.001,VALID,21.092,VALID,3.0,VALID,0.0,
2018-11-18, 01:35:06,VALID,918.859,VALID,0.0,VALID,98.4,VALID,-0.008,VALID,21.118,VALID,3.0,VALID,0.0,
2018-11-18, 01:36:06,VALID,918.857,VALID,0.0,VALID,98.397,VALID,-0.024,VALID,21.128,VALID,3.0,VALID,0.0,
2018-11-18, 01:37:06,VALID,918.837,VALID,0.0,VALID,98.232,VALID,-0.021,VALID,21.068,VALID,3.0,VALID,0.0,
2018-11-18, 01:38:06,VALID,918.833,VALID,0.0,VALID,98.275,VALID,-0.027,VALID,21.077,VALID,3.0,VALID,0.0,
2018-11-18, 01:39:06,VALID,918.819,VALID,0.0,VALID,98.28,VALID,-0.009,VALID,21.09,VALID,3.0,VALID,0.0,
2018-11-18, 01:40:06,VALID,918.805,VALID,0.0,VALID,98.263,VALID,-0.005,VALID,21.078,VALID,3.0,VALID,0.0,
2018-11-18, 01:41:06,VALID,918.799,VALID,0.0,VALID,98.243,VALID,-0.026,VALID,21.06,VALID,3.0,VALID,0.0,
2018-11-18, 01:42:06,VALID,918.777,VALID,0.0,VALID,98.225,VALID,-0.016,VALID,21.056,VALID,3.0,VALID,0.0,
2018-11-18, 01:43:06,VALID,918.761,VALID,0.0,VALID,98.268,VALID,-0.007,VALID,21.085,VALID,3.0,VALID,0.0,
2018-11-18, 01:44:06,VALID,918.745,VALID,0.0,VALID,98.274,VALID,-0.014,VALID,21.081,VALID,2.0,VALID,0.0,
2018-11-18, 01:45:06,VALID,918.734,VALID,0.0,VALID,98.275,VALID,-0.005,VALID,21.069,VALID,340.0,VALID,0.0,
2018-11-18, 01:46:06,VALID,918.711,VALID,0.0,VALID,98.124,VALID,-0.016,VALID,21.006,VALID,332.0,VALID,0.0,
2018-11-18, 01:47:06,VALID,918.705,VALID,0.0,VALID,98.11,VALID,-0.02,VALID,20.996,VALID,301.0,VALID,0.0,
2018-11-18, 01:48:06,VALID,918.684,VALID,0.0,VALID,98.132,VALID,-0.017,VALID,20.991,VALID,260.0,VALID,0.0,
2018-11-18, 01:49:06,VALID,918.668,VALID,0.0,VALID,98.274,VALID,-0.021,VALID,21.036,VALID,260.0,VALID,0.0,
2018-11-18, 01:50:06,VALID,918.649,VALID,0.0,VALID,98.196,VALID,-0.011,VALID,20.966,VALID,325.0,VALID,0.0,
2018-11-18, 01:51:06,VALID,918.639,VALID,0.0,VALID,98.21,VALID,-0.021,VALID,20.923,VALID,2.0,VALID,0.0,
2018-11-18, 01:52:06,VALID,918.61,VALID,0.0,VALID,98.393,VALID,-0.008,VALID,20.962,VALID,27.0,VALID,0.0,
2018-11-18, 01:53:06,VALID,918.61,VALID,0.0,VALID,98.423,VALID,-0.0,VALID,20.943,VALID,22.0,VALID,0.0,
2018-11-18, 01:54:06,VALID,918.585,VALID,0.0,VALID,98.482,VALID,-0.009,VALID,20.943,VALID,26.0,VALID,0.0,
2018-11-18, 01:55:06,VALID,918.574,VALID,0.0,VALID,98.439,VALID,-0.017,VALID,20.893,VALID,18.0,VALID,0.0,
2018-11-18, 01:56:06,VALID,918.548,VALID,0.0,VALID,98.534,VALID,-0.041,VALID,20.908,VALID,26.0,VALID,0.0,
2018-11-18, 01:57:06,VALID,918.558,VALID,0.0,VALID,98.644,VALID,-0.026,VALID,20.967,VALID,26.0,VALID,0.0,
2018-11-18, 01:58:06,VALID,918.54,VALID,0.0,VALID,98.672,VALID,-0.032,VALID,20.987,VALID,27.0,VALID,0.0,
2018-11-18, 01:59:06,VALID,918.534,VALID,0.0,VALID,98.598,VALID,-0.041,VALID,20.931,VALID,27.0,VALID,0.0,
2018-11-18, 02:00:06,VALID,918.529,VALID,0.0,VALID,98.657,VALID,-0.047,VALID,20.943,VALID,27.0,VALID,0.0,
2018-11-18, 02:01:06,VALID,918.529,VALID,0.0,VALID,98.729,VALID,-0.043,VALID,20.977,VALID,70.0,VALID,0.0,
2018-11-18, 02:02:06,VALID,918.497,VALID,0.0,VALID,98.723,VALID,-0.024,VALID,20.966,VALID,202.0,VALID,0.0,
2018-11-18, 02:03:06,VALID,918.498,VALID,0.0,VALID,98.778,VALID,-0.047,VALID,20.977,VALID,202.0,VALID,0.0,
2018-11-18, 02:04:06,VALID,918.502,VALID,0.0,VALID,98.746,VALID,-0.045,VALID,20.94,VALID,176.0,VALID,0.0,
2018-11-18, 02:05:06,VALID,918.489,VALID,0.0,VALID,98.719,VALID,-0.053,VALID,20.909,VALID,164.0,VALID,0.0,
2018-11-18, 02:06:06,VALID,918.478,VALID,0.0,VALID,98.735,VALID,-0.034,VALID,20.913,VALID,197.0,VALID,0.0,
2018-11-18, 02:07:06,VALID,918.469,VALID,0.0,VALID,98.791,VALID,-0.038,VALID,20.949,VALID,209.0,VALID,0.0,
2018-11-18, 02:08:06,VALID,918.443,VALID,0.0,VALID,98.807,VALID,-0.033,VALID,20.934,VALID,222.0,VALID,0.0,
2018-11-18, 02:09:06,VALID,918.435,VALID,0.0,VALID,98.749,VALID,-0.024,VALID,20.853,VALID,241.0,VALID,0.0,
2018-11-18, 02:10:06,VALID,918.453,VALID,0.0,VALID,98.694,VALID,0.013,VALID,20.775,VALID,229.0,VALID,0.0,
2018-11-18, 02:11:06,VALID,918.448,VALID,0.0,VALID,98.73,VALID,0.009,VALID,20.767,VALID,216.0,VALID,0.0,
2018-11-18, 02:12:06,VALID,918.428,VALID,0.0,VALID,98.753,VALID,0.005,VALID,20.752,VALID,227.0,VALID,0.0,
2018-11-18, 02:13:06,VALID,918.43,VALID,0.0,VALID,98.751,VALID,-0.008,VALID,20.739,VALID,230.0,VALID,0.0,
2018-11-18, 02:14:06,VALID,918.443,VALID,0.0,VALID,98.773,VALID,-0.006,VALID,20.743,VALID,242.0,VALID,0.0,
2018-11-18, 02:15:06,VALID,918.45,VALID,0.0,VALID,98.757,VALID,0.002,VALID,20.696,VALID,241.0,VALID,0.0,
2018-11-18, 02:16:06,VALID,918.449,VALID,0.0,VALID,98.746,VALID,0.004,VALID,20.673,VALID,234.0,VALID,0.0,
2018-11-18, 02:17:06,VALID,918.417,VALID,0.0,VALID,98.794,VALID,0.016,VALID,20.672,VALID,226.0,VALID,0.0,
2018-11-18, 02:18:06,VALID,918.416,VALID,0.0,VALID,98.796,VALID,0.01,VALID,20.674,VALID,241.0,VALID,0.0,
2018-11-18, 02:19:06,VALID,918.435,VALID,0.0,VALID,98.852,VALID,0.021,VALID,20.692,VALID,240.0,VALID,0.0,
2018-11-18, 02:20:06,VALID,918.415,VALID,0.0,VALID,98.866,VALID,0.004,VALID,20.684,VALID,240.0,VALID,0.0,
2018-11-18, 02:21:06,VALID,918.41,VALID,0.0,VALID,98.895,VALID,-0.002,VALID,20.708,VALID,242.0,VALID,0.0,
2018-11-18, 02:22:06,VALID,918.413,VALID,0.0,VALID,98.916,VALID,-0.011,VALID,20.733,VALID,239.0,VALID,0.0,
2018-11-18, 02:23:06,VALID,918.392,VALID,0.0,VALID,98.876,VALID,0.016,VALID,20.665,VALID,228.0,VALID,0.0,
2018-11-18, 02:24:06,VALID,918.397,VALID,0.0,VALID,98.911,VALID,-0.001,VALID,20.687,VALID,231.0,VALID,0.0,
2018-11-18, 02:25:06,VALID,918.388,VALID,0.0,VALID,98.891,VALID,0.002,VALID,20.67,VALID,235.0,VALID,0.0,
2018-11-18, 02:26:06,VALID,918.376,VALID,0.0,VALID,98.914,VALID,-0.019,VALID,20.663,VALID,242.0,VALID,0.0,
2018-11-18, 02:27:06,VALID,918.365,VALID,0.0,VALID,98.929,VALID,-0.013,VALID,20.648,VALID,234.0,VALID,0.0,
2018-11-18, 02:28:06,VALID,918.353,VALID,0.0,VALID,98.906,VALID,-0.016,VALID,20.637,VALID,206.0,VALID,0.0,
2018-11-18, 02:29:06,VALID,918.306,VALID,0.0,VALID,98.942,VALID,-0.014,VALID,20.67,VALID,239.0,VALID,0.0,
2018-11-18, 02:30:06,VALID,918.283,VALID,0.0,VALID,98.971,VALID,-0.012,VALID,20.648,VALID,236.0,VALID,0.0,
2018-11-18, 02:31:06,VALID,918.263,VALID,0.0,VALID,98.946,VALID,-0.006,VALID,20.66,VALID,236.0,VALID,0.0,
2018-11-18, 02:32:06,VALID,918.236,VALID,0.0,VALID,99.001,VALID,-0.008,VALID,20.702,VALID,230.0,VALID,0.0,
2018-11-18, 02:33:06,VALID,918.23,VALID,0.0,VALID,99.0,VALID,-0.006,VALID,20.713,VALID,228.0,VALID,0.0,
2018-11-18, 02:34:06,VALID,918.193,VALID,0.0,VALID,99.024,VALID,-0.014,VALID,20.743,VALID,226.0,VALID,0.0,
2018-11-18, 02:35:06,VALID,918.203,VALID,0.0,VALID,99.029,VALID,-0.015,VALID,20.755,VALID,241.0,VALID,0.0,
2018-11-18, 02:36:06,VALID,918.172,VALID,0.0,VALID,99.056,VALID,-0.011,VALID,20.789,VALID,264.0,VALID,0.0,
2018-11-18, 02:37:06,VALID,918.164,VALID,0.0,VALID,99.088,VALID,-0.015,VALID,20.849,VALID,272.0,VALID,0.0,
2018-11-18, 02:38:06,VALID,918.134,VALID,0.0,VALID,99.075,VALID,-0.011,VALID,20.874,VALID,239.0,VALID,0.0,
2018-11-18, 02:39:06,VALID,918.116,VALID,0.0,VALID,99.056,VALID,0.001,VALID,20.838,VALID,268.0,VALID,0.0,
2018-11-18, 02:40:06,VALID,918.122,VALID,0.0,VALID,99.024,VALID,0.01,VALID,20.781,VALID,285.0,VALID,0.0,
2018-11-18, 02:41:06,VALID,918.091,VALID,0.0,VALID,99.045,VALID,0.015,VALID,20.802,VALID,340.0,VALID,0.0,
2018-11-18, 02:42:06,VALID,918.082,VALID,0.0,VALID,99.052,VALID,0.029,VALID,20.809,VALID,340.0,VALID,0.0,
2018-11-18, 02:43:06,VALID,918.095,VALID,0.0,VALID,99.05,VALID,0.031,VALID,20.812,VALID,7.0,VALID,0.0,
2018-11-18, 02:44:06,VALID,918.076,VALID,0.0,VALID,99.04,VALID,0.04,VALID,20.785,VALID,71.0,VALID,0.0,
2018-11-18, 02:45:06,VALID,918.07,VALID,0.0,VALID,99.057,VALID,0.034,VALID,20.775,VALID,20.0,VALID,0.0,
2018-11-18, 02:46:06,VALID,918.066,VALID,0.0,VALID,99.039,VALID,0.029,VALID,20.749,VALID,5.0,VALID,0.0,
2018-11-18, 02:47:06,VALID,918.077,VALID,0.0,VALID,99.055,VALID,0.016,VALID,20.752,VALID,15.0,VALID,0.0,
2018-11-18, 02:48:06,VALID,918.077,VALID,0.0,VALID,99.029,VALID,0.028,VALID,20.722,VALID,3.0,VALID,0.0,
2018-11-18, 02:49:06,VALID,918.098,VALID,0.0,VALID,99.03,VALID,0.041,VALID,20.708,VALID,327.0,VALID,0.0,
2018-11-18, 02:50:06,VALID,918.109,VALID,0.0,VALID,99.029,VALID,0.02,VALID,20.698,VALID,10.0,VALID,0.0,
2018-11-18, 02:51:06,VALID,918.144,VALID,0.0,VALID,99.062,VALID,0.021,VALID,20.725,VALID,22.0,VALID,0.0,
2018-11-18, 02:52:06,VALID,918.173,VALID,0.0,VALID,99.044,VALID,0.018,VALID,20.713,VALID,7.0,VALID,0.0,
2018-11-18, 02:53:06,VALID,918.191,VALID,0.0,VALID,99.023,VALID,0.017,VALID,20.671,VALID,17.0,VALID,0.0,
2018-11-18, 02:54:06,VALID,918.209,VALID,0.0,VALID,99.059,VALID,0.007,VALID,20.699,VALID,19.0,VALID,0.0,
2018-11-18, 02:55:06,VALID,918.225,VALID,0.0,VALID,99.076,VALID,-0.006,VALID,20.711,VALID,29.0,VALID,0.0,
2018-11-18, 02:56:06,VALID,918.251,VALID,0.0,VALID,99.067,VALID,0.0,VALID,20.727,VALID,29.0,VALID,0.0,
2018-11-18, 02:57:06,VALID,918.261,VALID,0.0,VALID,99.061,VALID,-0.011,VALID,20.72,VALID,25.0,VALID,0.0,
2018-11-18, 02:58:06,VALID,918.275,VALID,0.0,VALID,99.027,VALID,-0.018,VALID,20.671,VALID,12.0,VALID,0.0,
2018-11-18, 02:59:06,VALID,918.307,VALID,0.0,VALID,98.979,VALID,-0.014,VALID,20.646,VALID,350.0,VALID,0.0,
2018-11-18, 03:00:06,VALID,918.313,VALID,0.0,VALID,99.01,VALID,-0.006,VALID,20.686,VALID,340.0,VALID,0.0,
2018-11-18, 03:01:06,VALID,918.305,VALID,0.0,VALID,99.006,VALID,-0.011,VALID,20.691,VALID,340.0,VALID,0.0,
2018-11-18, 03:02:06,VALID,918.304,VALID,0.0,VALID,98.979,VALID,-0.012,VALID,20.699,VALID,340.0,VALID,0.0,
2018-11-18, 03:03:06,VALID,918.297,VALID,0.0,VALID,98.952,VALID,-0.009,VALID,20.681,VALID,340.0,VALID,0.0,
2018-11-18, 03:04:06,VALID,918.307,VALID,0.0,VALID,98.92,VALID,-0.02,VALID,20.715,VALID,340.0,VALID,0.0,
2018-11-18, 03:05:06,VALID,918.288,VALID,0.0,VALID,98.856,VALID,-0.006,VALID,20.707,VALID,340.0,VALID,0.0,
2018-11-18, 03:06:06,VALID,918.284,VALID,0.0,VALID,98.787,VALID,-0.005,VALID,20.681,VALID,340.0,VALID,0.0,
2018-11-18, 03:07:06,VALID,918.287,VALID,0.0,VALID,98.797,VALID,-0.009,VALID,20.701,VALID,340.0,VALID,0.0,
2018-11-18, 03:08:06,VALID,918.291,VALID,0.0,VALID,98.79,VALID,-0.001,VALID,20.733,VALID,340.0,VALID,0.0,
2018-11-18, 03:09:06,VALID,918.283,VALID,0.0,VALID,98.745,VALID,0.009,VALID,20.716,VALID,340.0,VALID,0.0,
2018-11-18, 03:10:06,VALID,918.299,VALID,0.0,VALID,98.713,VALID,0.003,VALID,20.745,VALID,340.0,VALID,0.0,
2018-11-18, 03:11:06,VALID,918.277,VALID,0.0,VALID,98.695,VALID,0.02,VALID,20.746,VALID,340.0,VALID,0.0,
2018-11-18, 03:12:06,VALID,918.281,VALID,0.0,VALID,98.575,VALID,0.017,VALID,20.686,VALID,340.0,VALID,0.0,
2018-11-18, 03:13:06,VALID,918.268,VALID,0.0,VALID,98.509,VALID,0.035,VALID,20.663,VALID,340.0,VALID,0.0,
2018-11-18, 03:14:06,VALID,918.267,VALID,0.0,VALID,98.515,VALID,0.022,VALID,20.66,VALID,13.0,VALID,0.0,
2018-11-18, 03:15:06,VALID,918.26,VALID,0.0,VALID,98.477,VALID,0.021,VALID,20.646,VALID,8.0,VALID,0.0,
2018-11-18, 03:16:06,VALID,918.254,VALID,0.0,VALID,98.491,VALID,0.013,VALID,20.65,VALID,3.0,VALID,0.0,
2018-11-18, 03:17:06,VALID,918.249,VALID,0.0,VALID,98.573,VALID,0.028,VALID,20.711,VALID,5.0,VALID,0.0,
2018-11-18, 03:18:06,VALID,918.243,VALID,0.0,VALID,98.465,VALID,0.013,VALID,20.674,VALID,353.0,VALID,0.0,
2018-11-18, 03:19:06,VALID,918.24,VALID,0.0,VALID,98.426,VALID,0.012,VALID,20.636,VALID,353.0,VALID,0.0,
2018-11-18, 03:20:06,VALID,918.22,VALID,0.0,VALID,98.408,VALID,0.021,VALID,20.633,VALID,354.0,VALID,0.0,
2018-11-18, 03:21:06,VALID,918.227,VALID,0.0,VALID,98.48,VALID,0.029,VALID,20.659,VALID,356.0,VALID,0.0,
2018-11-18, 03:22:06,VALID,918.198,VALID,0.0,VALID,98.433,VALID,0.018,VALID,20.619,VALID,353.0,VALID,0.0,
2018-11-18, 03:23:06,VALID,918.212,VALID,0.0,VALID,98.447,VALID,0.017,VALID,20.6,VALID,351.0,VALID,0.0,
2018-11-18, 03:24:06,VALID,918.217,VALID,0.0,VALID,98.495,VALID,0.015,VALID,20.599,VALID,356.0,VALID,0.0,
2018-11-18, 03:25:06,VALID,918.234,VALID,0.0,VALID,98.555,VALID,0.011,VALID,20.608,VALID,345.0,VALID,0.0,
2018-11-18, 03:26:06,VALID,918.248,VALID,0.0,VALID,98.597,VALID,-0.004,VALID,20.605,VALID,308.0,VALID,0.0,
2018-11-18, 03:27:06,VALID,918.253,VALID,0.0,VALID,98.565,VALID,-0.002,VALID,20.585,VALID,319.0,VALID,0.0,
2018-11-18, 03:28:06,VALID,918.262,VALID,0.0,VALID,98.593,VALID,0.006,VALID,20.576,VALID,319.0,VALID,0.0,
2018-11-18, 03:29:06,VALID,918.265,VALID,0.0,VALID,98.608,VALID,-0.002,VALID,20.59,VALID,319.0,VALID,0.0,
2018-11-18, 03:30:06,VALID,918.255,VALID,0.0,VALID,98.629,VALID,-0.006,VALID,20.61,VALID,324.0,VALID,0.0,
2018-11-18, 03:31:06,VALID,918.281,VALID,0.0,VALID,98.628,VALID,-0.008,VALID,20.605,VALID,323.0,VALID,0.0,
2018-11-18, 03:32:06,VALID,918.288,VALID,0.0,VALID,98.635,VALID,0.002,VALID,20.614,VALID,320.0,VALID,0.0,
2018-11-18, 03:33:06,VALID,918.263,VALID,0.0,VALID,98.633,VALID,-0.004,VALID,20.611,VALID,330.0,VALID,0.0,
2018-11-18, 03:34:06,VALID,918.267,VALID,0.0,VALID,98.652,VALID,0.01,VALID,20.632,VALID,319.0,VALID,0.0,
2018-11-18, 03:35:06,VALID,918.249,VALID,0.0,VALID,98.614,VALID,0.003,VALID,20.616,VALID,309.0,VALID,0.0,
2018-11-18, 03:36:06,VALID,918.227,VALID,0.0,VALID,98.629,VALID,0.003,VALID,20.609,VALID,309.0,VALID,0.0,
2018-11-18, 03:37:06,VALID,918.219,VALID,0.0,VALID,98.622,VALID,-0.006,VALID,20.621,VALID,309.0,VALID,0.0,
2018-11-18, 03:38:06,VALID,918.191,VALID,0.0,VALID,98.612,VALID,0.011,VALID,20.61,VALID,313.0,VALID,0.0,
2018-11-18, 03:39:06,VALID,918.187,VALID,0.0,VALID,98.599,VALID,0.005,VALID,20.6,VALID,332.0,VALID,0.0,
2018-11-18, 03:40:06,VALID,918.198,VALID,0.0,VALID,98.676,VALID,0.013,VALID,20.625,VALID,340.0,VALID,0.0,
2018-11-18, 03:41:06,VALID,918.188,VALID,0.0,VALID,98.717,VALID,0.006,VALID,20.662,VALID,14.0,VALID,0.0,
2018-11-18, 03:42:06,VALID,918.174,VALID,0.0,VALID,98.772,VALID,-0.001,VALID,20.695,VALID,20.0,VALID,0.0,
2018-11-18, 03:43:06,VALID,918.18,VALID,0.0,VALID,98.738,VALID,-0.005,VALID,20.683,VALID,19.0,VALID,0.0,